CST,Max TemperatureF,Mean TemperatureF,Min TemperatureF,Max Dew PointF,MeanDew PointF,Min DewpointF,Max Humidity, Mean Humidity, Min Humidity, Max Sea Level PressureIn, Mean Sea Level PressureIn, Min Sea Level PressureIn, Max VisibilityMiles, Mean VisibilityMiles, Min VisibilityMiles, Max Wind SpeedMPH, Mean Wind SpeedMPH, Max Gust SpeedMPH,PrecipitationIn, CloudCover, Events, WindDirDegrees
2012-12-1,58,44,30,53,43,30,100,90,80,30.12,29.96,29.85,10,5,0,13,4,,0.00,6,Fog-Rain,143
2012-12-2,58,48,38,53,48,38,99,92,72,30.03,29.96,29.85,7,2,0,9,2,,0.00,5,Fog-Rain,172
2012-12-3,68,56,44,61,53,38,98,85,63,29.99,29.83,29.72,10,6,0,22,8,28,0.08,7,Fog-Rain,188
2012-12-4,59,46,34,37,32,24,94,60,31,30.33,30.14,29.94,10,10,10,15,7,21,0.08,0,,290
2012-12-5,41,32,24,31,22,17,83,63,40,30.44,30.32,30.15,10,10,10,13,7,,0.00,0,,94
2012-12-6,47,40,34,39,35,31,88,77,64,30.15,29.99,29.89,10,10,10,14,8,18,0.00,4,Rain,168
2012-12-7,44,40,35,39,31,24,93,70,47,29.97,29.93,29.90,10,10,5,12,4,,0.00,8,Rain,22
2012-12-8,37,34,31,33,32,30,97,89,80,30.07,30.01,29.92,10,8,3,13,6,16,0.02,6,Rain-Snow,33
2012-12-9,38,34,29,38,34,26,98,95,81,30.04,29.86,29.75,10,5,1,17,8,24,0.08,8,Rain-Snow,57
2012-12-10,31,28,25,29,25,22,93,87,82,29.98,29.87,29.77,10,10,7,17,11,21,0.00,8,,270
2012-12-11,35,25,15,26,21,14,96,77,56,30.12,30.00,29.96,10,10,10,14,7,20,0.00,3,,205
2012-12-12,47,35,23,28,24,20,87,69,39,30.23,30.17,30.12,10,10,10,20,8,24,0.00,1,,168
2012-12-13,49,39,29,27,25,22,84,66,35,30.20,30.14,30.06,10,10,10,16,9,24,0.00,0,,177
2012-12-14,49,36,22,36,29,21,98,76,48,30.17,30.08,29.95,10,9,2,12,3,,0.00,2,,131
2012-12-15,48,44,41,47,43,35,97,93,70,29.94,29.65,29.50,10,6,2,18,10,24,0.64,8,Rain,164
2012-12-16,46,41,35,45,36,32,92,86,81,29.75,29.67,29.56,10,9,5,15,10,23,0.02,8,,271
2012-12-17,35,34,32,32,30,28,97,90,82,29.75,29.73,29.69,10,7,3,8,4,,0.00,8,,317
2012-12-18,40,34,29,36,32,27,94,88,81,29.89,29.69,29.54,10,6,3,15,6,20,0.00,8,,186
2012-12-19,37,35,33,33,32,30,97,88,79,30.04,29.95,29.69,7,6,1,20,6,25,0.13,8,Rain-Snow-Thunderstorm,71
2012-12-20,35,32,27,35,31,22,97,92,80,29.73,29.43,29.21,10,3,0,28,19,43,0.79,8,Rain-Snow-Thunderstorm,345
2012-12-21,27,18,9,22,14,7,92,74,62,30.23,30.07,29.74,10,10,7,22,15,32,0.00,1,,300
2012-12-22,28,17,6,19,12,4,96,86,65,30.24,30.11,29.95,10,10,7,9,2,,0.00,0,,108
2012-12-23,26,18,10,23,17,9,94,88,81,30.04,30.00,29.94,10,9,7,14,5,,0.00,4,,16
2012-12-24,28,26,22,26,23,17,91,86,80,30.17,29.98,29.90,10,8,2,12,6,,0.00,8,Snow,359
2012-12-25,22,16,11,16,12,8,87,76,68,30.37,30.29,30.18,10,10,10,14,7,18,0.00,2,,353
2012-12-26,28,24,19,21,19,14,83,77,70,30.24,30.16,30.10,10,10,10,15,9,20,0.00,7,,351
2012-12-27,28,22,16,24,18,12,86,80,71,30.21,30.16,30.10,10,10,10,12,6,,0.00,7,,25
2012-12-28,30,29,28,28,27,24,96,90,83,30.10,29.99,29.91,10,6,3,7,3,,0.00,8,Snow,87
2012-12-29,27,20,13,26,18,10,94,83,75,30.25,30.07,29.91,10,8,4,18,9,23,0.00,6,Snow,289
2012-12-30,34,20,7,26,16,6,92,81,69,30.32,30.21,30.02,10,8,4,13,5,,0.00,0,,188
2012-12-31,35,26,17,26,17,9,79,74,64,30.19,30.09,30.00,10,10,10,16,9,20,0.00,5,,286